Location: Copper Breaks State Park
(34.1132°N, 99.7492°W)
Time: 00:01:52
(UTC-05:00)

SL-16 R/B - Visible Passes

Search period start: 04 July 2015 00:00
Search period end: 14 July 2015 00:00
Orbit: 985 x 1007 km, 99.2° (Epoch: 03 July)

Date Brightness Start Highest point End Pass type
(mag) Time Alt. Az. Time Alt. Az. Time Alt. Az.
04 Jul 3.4 04:33:53 10° SE 04:39:44 49° ENE 04:45:39 10° N visible
05 Jul 5.3 03:25:41 10° E 03:27:35 12° ENE 03:29:53 10° NE visible
05 Jul 2.5 05:04:20 10° SSE 05:10:29 89° ENE 05:16:42 10° NNW visible
06 Jul 4.7 03:53:37 10° ESE 03:58:05 22° ENE 04:02:45 10° NNE visible
06 Jul 2.7 05:35:26 10° S 05:41:23 50° W 05:47:21 10° NNW visible
07 Jul 3.8 04:23:04 10° SE 04:28:41 40° ENE 04:34:24 10° N visible
08 Jul 2.7 04:53:18 10° SSE 04:59:24 73° ENE 05:05:35 10° N visible
09 Jul 5.0 03:43:15 10° ESE 03:47:05 18° ENE 03:51:12 10° NNE visible
09 Jul 2.5 05:24:10 10° S 05:30:15 63° WSW 05:36:23 10° NNW visible
10 Jul 4.1 04:12:21 10° SE 04:17:39 32° ENE 04:23:05 10° N visible
10 Jul 3.2 05:55:44 10° SSW 06:01:16 33° W 06:06:44 10° NW visible
11 Jul 3.1 04:42:20 10° SSE 04:48:20 59° ENE 04:54:25 10° N visible
12 Jul 5.1 03:33:07 10° E 03:36:06 15° ENE 03:39:27 10° NNE visible
12 Jul 2.5 05:12:59 10° S 05:19:08 77° WSW 05:25:21 10° NNW visible
13 Jul 4.5 04:01:44 10° ESE 04:06:38 27° ENE 04:11:43 10° NNE visible
13 Jul 2.9 05:44:17 10° SSW 05:50:05 41° W 05:55:52 10° NNW visible
